Weather History for Superior, WI

Change the Weather History Date:

Monday, February 25, 2013

  Actual Average Record
Temperature  
Mean Temperature 25 °F -  
Max Temperature 36 °F 29 °F 7 °F (2014)
Min Temperature 14 °F 9 °F -12 °F (2014)
Degree Days  
Heating Degree Days 40    
Moisture  
Dew Point 18 °F    
Average Humidity 77    
Maximum Humidity 96    
Minimum Humidity 54    
Precipitation  
Precipitation 0.00 in - - ()
Sea Level Pressure  
Sea Level Pressure 30.07 in    
Wind  
Wind Speed 5 mph (SW)    
Max Wind Speed 12 mph    
Max Gust Speed -    
Visibility 10 miles    
Events      
Averages and records for this station are not official NWS values.
T = Trace of Precipitation, MM = Missing Value Source: NWS Daily Summary

Daily Weather History Graph

Daily Weather History Graph

Search for Another Location

Airport:

Trip Planner

Search our weather history database for the weather conditions in past years. The results will help you decide how hot, cold, wet, or windy it might be!

Date:

Astronomy

Feb. 25, 2013 Rise Set
Actual Time 6:54 AM CST 5:48 PM CST
Civil Twilight 6:24 AM CST 6:19 PM CST
Nautical Twilight 5:49 AM CST 6:54 PM CST
Astronomical Twilight 5:14 AM CST 7:29 PM CST
Moon 6:06 PM CST (2/25) 6:22 AM CST (2/25)
Length of Visible Light 11h 55m
Length of Day
10h 54m
Full, 100% of the Moon is Illuminated
Feb 25
Full
Feb 25
Full
Mar 4
Last Quarter
Mar 11
New
Mar 19
First Quarter

Hourly Weather History & Observations

Time (CST) Temp. Windchill Dew Point Humidity Pressure Visibility Wind Dir Wind Speed Gust Speed Precip Events Conditions
12:15 AM 22.8 °F 14.5 °F 18.1 °F 82% 30.07 in 10.0 mi SW 6.9 mph - N/A   Clear
12:35 AM 22.6 °F 14.3 °F 18.1 °F 83% 30.08 in 10.0 mi SW 6.9 mph - N/A   Clear
12:55 AM 22.3 °F 13.0 °F 17.6 °F 82% 30.08 in 10.0 mi SW 8.1 mph - N/A   Clear
1:15 AM 22.8 °F 14.5 °F 18.1 °F 82% 30.09 in 10.0 mi SW 6.9 mph - N/A   Clear
1:35 AM 20.8 °F 12.1 °F 17.4 °F 87% 30.09 in 10.0 mi SW 6.9 mph - N/A   Clear
1:55 AM 21.4 °F 13.8 °F 17.4 °F 85% 30.10 in 10.0 mi SW 5.8 mph - N/A   Clear
2:15 AM 20.7 °F 13.0 °F 17.1 °F 86% 30.10 in 10.0 mi SW 5.8 mph - N/A   Clear
2:35 AM 19.9 °F 12.1 °F 16.5 °F 87% 30.09 in 10.0 mi SW 5.8 mph - N/A   Clear
2:55 AM 20.3 °F 13.8 °F 17.1 °F 87% 30.09 in 10.0 mi SW 4.6 mph - N/A   Clear
3:15 AM 19.8 °F 11.9 °F 16.7 °F 88% 30.08 in 10.0 mi SW 5.8 mph - N/A   Clear
3:35 AM 18.3 °F 9.1 °F 15.4 °F 89% 30.08 in 10.0 mi SW 6.9 mph - N/A   Clear
3:55 AM 18.7 °F 10.6 °F 16.0 °F 89% 30.07 in 10.0 mi SW 5.8 mph - N/A   Clear
4:15 AM 20.1 °F 12.3 °F 16.7 °F 87% 30.07 in 10.0 mi SW 5.8 mph - N/A   Clear
4:35 AM 19.4 °F 11.5 °F 16.5 °F 89% 30.08 in 10.0 mi SW 5.8 mph - N/A   Clear
4:55 AM 19.8 °F 11.9 °F 16.3 °F 87% 30.08 in 10.0 mi SW 5.8 mph - N/A   Clear
5:15 AM 19.8 °F 13.2 °F 16.5 °F 87% 30.08 in 10.0 mi SW 4.6 mph - N/A   Clear
5:35 AM 19.8 °F 11.9 °F 16.5 °F 87% 30.08 in 10.0 mi SW 5.8 mph - N/A   Clear
5:55 AM 16.0 °F - 13.6 °F 90% 30.08 in 10.0 mi Calm Calm - N/A   Clear
6:15 AM 14.7 °F 5.9 °F 13.1 °F 93% 30.09 in 10.0 mi SSW 5.8 mph - N/A   Clear
6:35 AM 15.8 °F 10.2 °F 14.0 °F 93% 30.08 in 10.0 mi SSW 3.5 mph - N/A   Scattered Clouds
6:55 AM 14.2 °F 6.7 °F 12.6 °F 93% 30.09 in 10.0 mi SSW 4.6 mph - N/A   Scattered Clouds
7:15 AM 14.9 °F 9.2 °F 13.3 °F 93% 30.09 in 10.0 mi SW 3.5 mph - N/A   Scattered Clouds
7:35 AM 14.9 °F 7.5 °F 12.9 °F 92% 30.10 in 10.0 mi SSW 4.6 mph - N/A   Mostly Cloudy
7:55 AM 17.6 °F 12.3 °F 15.1 °F 90% 30.11 in 10.0 mi SSW 3.5 mph - N/A   Mostly Cloudy
8:15 AM 18.0 °F 12.7 °F 15.3 °F 89% 30.11 in 10.0 mi WSW 3.5 mph - N/A   Scattered Clouds
8:35 AM 19.2 °F 14.1 °F 16.0 °F 87% 30.11 in 10.0 mi SW 3.5 mph - N/A   Clear
8:55 AM 21.6 °F 15.3 °F 17.2 °F 83% 30.11 in 10.0 mi SW 4.6 mph - N/A   Scattered Clouds
9:15 AM 23.9 °F 18.0 °F 18.1 °F 79% 30.11 in 10.0 mi SW 4.6 mph - N/A   Scattered Clouds
9:35 AM 25.5 °F 19.9 °F 18.3 °F 74% 30.10 in 10.0 mi WSW 4.6 mph - N/A   Clear
9:55 AM 26.6 °F 22.6 °F 18.3 °F 71% 30.10 in 10.0 mi WSW 3.5 mph - N/A   Clear
10:15 AM 27.9 °F 24.0 °F 18.5 °F 68% 30.10 in 10.0 mi SW 3.5 mph - N/A   Clear
10:35 AM 29.7 °F 23.7 °F 18.5 °F 63% 30.10 in 10.0 mi West 5.8 mph - N/A   Clear
10:55 AM 30.2 °F 24.3 °F 18.9 °F 63% 30.09 in 10.0 mi West 5.8 mph - N/A   Clear
11:15 AM 31.5 °F 26.8 °F 19.2 °F 61% 30.09 in 10.0 mi SW 4.6 mph - N/A   Clear
11:35 AM 32.2 °F 24.4 °F 19.9 °F 61% 30.08 in 10.0 mi SW 9.2 mph - N/A   Clear
11:55 AM 32.9 °F 25.9 °F 20.7 °F 61% 30.07 in 10.0 mi WSW 8.1 mph - N/A   Clear
12:15 PM 33.4 °F 24.8 °F 21.2 °F 61% 30.06 in 10.0 mi South 11.5 mph - N/A   Clear
12:35 PM 34.0 °F 27.2 °F 21.2 °F 60% 30.06 in 10.0 mi SW 8.1 mph - N/A   Clear
12:55 PM 34.7 °F 27.5 °F 21.0 °F 57% 30.06 in 10.0 mi WSW 9.2 mph - N/A   Clear
1:15 PM 35.2 °F 30.3 °F 21.0 °F 56% 30.06 in 10.0 mi WSW 5.8 mph - N/A   Clear
1:35 PM 35.8 °F 31.9 °F 21.4 °F 56% 30.05 in 10.0 mi SW 4.6 mph - N/A   Clear
1:55 PM 36.0 °F - 21.7 °F 56% 30.04 in 10.0 mi Calm Calm - N/A   Clear
2:15 PM 36.5 °F 31.0 °F 21.7 °F 55% 30.04 in 10.0 mi SSW 6.9 mph - N/A   Clear
2:35 PM 36.5 °F 30.3 °F 21.7 °F 55% 30.04 in 10.0 mi SSW 8.1 mph - N/A   Clear
2:55 PM 36.7 °F 31.2 °F 21.7 °F 55% 30.03 in 10.0 mi WSW 6.9 mph - N/A   Clear
3:15 PM 36.7 °F 31.2 °F 21.7 °F 55% 30.03 in 10.0 mi SW 6.9 mph - N/A   Clear
3:35 PM 36.9 °F 32.2 °F 21.7 °F 54% 30.03 in 10.0 mi SW 5.8 mph - N/A   Clear
3:55 PM 36.5 °F 31.0 °F 22.1 °F 56% 30.03 in 10.0 mi SW 6.9 mph - N/A   Clear
4:15 PM 36.5 °F 31.0 °F 21.9 °F 56% 30.03 in 10.0 mi SW 6.9 mph - N/A   Clear
4:35 PM 36.3 °F 31.6 °F 21.9 °F 56% 30.04 in 10.0 mi SSW 5.8 mph - N/A   Clear
4:55 PM 35.4 °F 29.7 °F 21.9 °F 58% 30.04 in 10.0 mi SW 6.9 mph - N/A   Clear
5:15 PM 34.9 °F 32.0 °F 21.9 °F 59% 30.04 in 10.0 mi West 3.5 mph - N/A   Clear
5:35 PM 33.8 °F 30.8 °F 21.0 °F 60% 30.05 in 10.0 mi West 3.5 mph - N/A   Clear
5:55 PM 33.3 °F - 21.2 °F 61% 30.05 in 10.0 mi Calm Calm - N/A   Clear
6:15 PM 31.6 °F - 20.7 °F 64% 30.05 in 10.0 mi Calm Calm - N/A   Clear
6:35 PM 28.6 °F 24.8 °F 19.8 °F 70% 30.06 in 10.0 mi WSW 3.5 mph - N/A   Clear
6:55 PM 25.9 °F - 19.6 °F 77% 30.06 in 10.0 mi Calm Calm - N/A   Clear
7:15 PM 25.9 °F 21.7 °F 19.0 °F 75% 30.06 in 10.0 mi WSW 3.5 mph - N/A   Clear
7:35 PM 22.3 °F - 18.0 °F 83% 30.06 in 10.0 mi Calm Calm - N/A   Clear
7:55 PM 23.0 °F 17.0 °F 20.1 °F 89% 30.06 in 10.0 mi SW 4.6 mph - N/A   Clear
8:15 PM 21.9 °F 17.2 °F 19.2 °F 89% 30.06 in 10.0 mi SSW 3.5 mph - N/A   Clear
8:35 PM 21.0 °F 14.6 °F 18.3 °F 89% 30.06 in 10.0 mi SSW 4.6 mph - N/A   Clear
8:55 PM 21.9 °F 15.7 °F 18.0 °F 85% 30.06 in 10.0 mi WSW 4.6 mph - N/A   Clear
9:15 PM 20.1 °F 15.2 °F 17.1 °F 88% 30.06 in 10.0 mi SW 3.5 mph - N/A   Clear
9:35 PM 19.2 °F - 17.4 °F 93% 30.06 in 10.0 mi Calm Calm - N/A   Clear
9:55 PM 18.7 °F 13.5 °F 16.0 °F 89% 30.06 in 10.0 mi SSW 3.5 mph - N/A   Clear
10:15 PM 17.6 °F 12.3 °F 15.4 °F 91% 30.05 in 7.0 mi South 3.5 mph - N/A   Clear
10:35 PM 17.4 °F 12.1 °F 16.3 °F 96% 30.06 in 10.0 mi SSW 3.5 mph - N/A   Clear
10:55 PM 16.0 °F - 15.1 °F 96% 30.05 in 7.0 mi Calm Calm - N/A   Clear
11:15 PM 16.9 °F - 15.3 °F 93% 30.04 in 10.0 mi Calm Calm - N/A   Clear
11:35 PM 14.5 °F - 13.5 °F 95% 30.04 in 7.0 mi Calm Calm - N/A   Clear
11:55 PM 15.6 °F 5.9 °F 14.0 °F 93% 30.05 in 10.0 mi South 6.9 mph - N/A   Clear